Weather in Maastricht

Netherlands     50°50′57″N   5°41′40″E
temp.,
°C
wind,
m/s
gust,
m/s
humid.,
%
clouds,
%
prec.,
mm/h
press.,
hPa
HPBL,
m
4 july, mon
mon423:00+13nnw22690 0.0 102030
02:00+11ssw11800 0.0 102111
05:00+10ssw22885 0.0 102117
08:00+14sw23705 0.0 1021214
11:00+20w22455 0.0 10211292
14:00+23w333799 0.0 10202080
17:00+25wsw33323 0.0 10192314
20:00+23wnw354076 0.0 1018647
5 july, tue
tue523:00+17n47620 0.0 1021274
02:00+15n116554 0.0 102135
05:00+11s11815 0.0 102111
08:00+16wsw226499 0.0 1022226
11:00+21wnw444568 0.0 10231265
14:00+22wnw654094 0.0 10222139
17:00+24nw753283 0.0 10222447
20:00+19nw77450 0.0 10241283
6 july, wed
wed623:00+12nw35670 0.0 102690
02:00+8wnw118316 0.0 102621
05:00+7ssw118884 0.0 102713
08:00+11ssw227419 0.0 1027207
11:00+19w234399 0.0 1026992
14:00+22w4538100 0.0 10241813
17:00+23wnw5744100 0.0 10232041
20:00+16wnw3788100 0.3 1023414
7 july, thu
thu723:00+15ssw349157 0.2 1023110
02:00+15sw3795100 0.5 1022219
05:00+15wsw4995100 0.4 1021291
08:00+15w41098100 1.3 1021528
11:00+17nw7986100 0.9 1022830
14:00+21nnw8951100 1.6 10231829
17:00+20n59509 0.1 10251562
20:00+19n78471 0.1 10261584
8 july, fri
fri823:00+12n38790 0.0 1029220
02:00+10nw23888 0.0 103046
05:00+8wnw119217 0.0 103126
08:00+13nnw248141 0.0 1031345
11:00+17n455876 0.0 10311208
14:00+20n4553100 0.0 10311387
17:00+19n456389 0.0 1031856
20:00+19n3468100 0.1 1030375